ECHOSTAR 11

Last updated on Tue Oct 15 2024 00:02:38 GMT+0000 (Coordinated Universal Time)

1 33207U 08035A 24287.52775098 -.00000059 00000+0 00000+0 0 9990 2 33207 0.0573 80.9742 0002718 112.3801 269.2464 1.00277139 59520
UTC large
Height (km)
Speed (km/s)
/
Latitude / Longitude
Inclination (degrees)
Orbital Period (minutes)
Azimuth
Elevation
Range (km)
Doppler Factor

Next 0 passes for location: London (51.5072 / 0.1276)

Sorry there are no passes over London.